EN

Hourly Weather Alozaina

Today, 17 January, Sunday

Time Temperature Precipitation Wind Pressure Humidity
00:00 +7°C° 0 mm 1 mps 722 mmHg 87%
01:00 +7°C° 0 mm 1 mps 722 mmHg 84%
02:00 +7°C° 0 mm 1 mps 721 mmHg 82%
03:00 +6°C° 0 mm 1 mps 721 mmHg 80%
04:00 +6°C° 0 mm 1 mps 721 mmHg 78%
05:00 +6°C° 0 mm 1 mps 721 mmHg 75%
06:00 +6°C° 0 mm 1 mps 721 mmHg 72%
07:00 +7°C° 0 mm 1 mps 721 mmHg 69%
08:00 +8°C° 0 mm 1 mps 721 mmHg 66%
09:00 +9°C° 0 mm 1 mps 722 mmHg 63%
10:00 +11°C° 0 mm 1 mps 722 mmHg 58%
11:00 +13°C° 0 mm 1 mps 722 mmHg 52%
12:00 +15°C° 0 mm 1 mps 722 mmHg 46%
13:00 +15°C° 0 mm 1 mps 722 mmHg 47%
14:00 +15°C° 0 mm 1 mps 721 mmHg 48%
15:00 +16°C° 0 mm 1 mps 721 mmHg 48%
16:00 +14°C° 0 mm 1 mps 720 mmHg 55%
17:00 +12°C° 0 mm 1 mps 720 mmHg 62%
18:00 +10°C° 0 mm 1 mps 720 mmHg 69%
19:00 +10°C° 0 mm 1 mps 720 mmHg 64%
20:00 +10°C° 0 mm 1 mps 720 mmHg 59%
21:00 +9°C° 0 mm 1 mps 720 mmHg 54%
22:00 +9°C° 0 mm 1 mps 720 mmHg 52%
23:00 +9°C° 0 mm 1 mps 720 mmHg 49%

Tomorrow, 18 January, Monday

Time Temperature Precipitation Wind Pressure Humidity
00:00 +9°C° 0 mm 1 mps 721 mmHg 46%
01:00 +9°C° 0 mm 1 mps 720 mmHg 45%
02:00 +8°C° 0 mm 1 mps 720 mmHg 43%
03:00 +8°C° 0 mm 1 mps 720 mmHg 41%
04:00 +8°C° 0 mm 1 mps 719 mmHg 42%
05:00 +8°C° 0 mm 1 mps 719 mmHg 42%
06:00 +8°C° 0 mm 1 mps 719 mmHg 43%
07:00 +9°C° 0 mm 1 mps 720 mmHg 46%
08:00 +9°C° 0 mm 0 mps 720 mmHg 50%
09:00 +9°C° 0 mm 0 mps 720 mmHg 54%
10:00 +12°C° 0 mm 1 mps 721 mmHg 50%
11:00 +13°C° 0 mm 1 mps 721 mmHg 46%
12:00 +15°C° 0 mm 1 mps 721 mmHg 43%
13:00 +15°C° 0 mm 1 mps 721 mmHg 44%
14:00 +15°C° 0 mm 1 mps 720 mmHg 45%
15:00 +15°C° 0 mm 1 mps 720 mmHg 46%
16:00 +13°C° 0 mm 1 mps 720 mmHg 53%
17:00 +11°C° 0 mm 1 mps 720 mmHg 60%
18:00 +9°C° 0 mm 1 mps 719 mmHg 67%
19:00 +9°C° 0 mm 1 mps 720 mmHg 67%
20:00 +9°C° 0 mm 1 mps 720 mmHg 66%
21:00 +8°C° 0 mm 1 mps 720 mmHg 65%
22:00 +8°C° 0 mm 1 mps 720 mmHg 64%
23:00 +8°C° 0 mm 1 mps 720 mmHg 62%

Day after tomorrow, 19 January, Tuesday

Time Temperature Precipitation Wind Pressure Humidity
00:00 +7°C° 0 mm 1 mps 720 mmHg 61%
01:00 +7°C° 0 mm 1 mps 720 mmHg 61%
02:00 +7°C° 0 mm 1 mps 719 mmHg 61%
03:00 +7°C° 0 mm 1 mps 719 mmHg 61%
04:00 +7°C° 0 mm 1 mps 719 mmHg 62%
05:00 +6°C° 0 mm 1 mps 719 mmHg 63%
06:00 +6°C° 0 mm 1 mps 719 mmHg 63%
07:00 +7°C° 0 mm 1 mps 719 mmHg 64%
08:00 +8°C° 0 mm 1 mps 719 mmHg 65%
09:00 +9°C° 0 mm 1 mps 719 mmHg 66%
10:00 +10°C° 0 mm 1 mps 719 mmHg 62%
11:00 +12°C° 0 mm 1 mps 719 mmHg 58%
12:00 +13°C° 0 mm 1 mps 720 mmHg 53%
13:00 +13°C° 0 mm 1 mps 719 mmHg 54%
14:00 +13°C° 0 mm 1 mps 718 mmHg 54%
15:00 +14°C° 0 mm 2 mps 717 mmHg 55%
16:00 +12°C° 0 mm 1 mps 717 mmHg 63%
17:00 +10°C° 0 mm 1 mps 717 mmHg 72%
18:00 +9°C° 0 mm 1 mps 717 mmHg 80%
19:00 +8°C° 0 mm 1 mps 717 mmHg 79%
20:00 +8°C° 0 mm 1 mps 717 mmHg 78%
21:00 +8°C° 0 mm 1 mps 717 mmHg 78%
22:00 +8°C° 0 mm 1 mps 717 mmHg 79%
23:00 +7°C° 0 mm 1 mps 716 mmHg 81%

20 January, Wednesday

Time Temperature Precipitation Wind Pressure Humidity
00:00 +6°C° 0 mm 2 mps 716 mmHg 83%
01:00 +6°C° 0 mm 2 mps 716 mmHg 85%
02:00 +6°C° 0 mm 2 mps 715 mmHg 86%
03:00 +6°C° 0 mm 2 mps 715 mmHg 88%
04:00 +6°C° 0 mm 2 mps 714 mmHg 88%
05:00 +6°C° 0 mm 2 mps 714 mmHg 88%
06:00 +6°C° 0 mm 2 mps 713 mmHg 88%
07:00 +7°C° 0 mm 3 mps 713 mmHg 88%
08:00 +7°C° 0 mm 3 mps 713 mmHg 87%
09:00 +7°C° 0 mm 4 mps 713 mmHg 86%
10:00 +7°C° 1.1 mm 4 mps 713 mmHg 88%
11:00 +8°C° 1.1 mm 4 mps 713 mmHg 91%
12:00 +8°C° 1.1 mm 4 mps 712 mmHg 93%
13:00 +10°C° 2.7 mm 4 mps 712 mmHg 92%
14:00 +10°C° 2.7 mm 4 mps 712 mmHg 92%
15:00 +11°C° 2.7 mm 4 mps 712 mmHg 91%
16:00 +10°C° 0.1 mm 4 mps 712 mmHg 91%
17:00 +10°C° 0.1 mm 3 mps 712 mmHg 90%
18:00 +9°C° 0.1 mm 3 mps 712 mmHg 90%
19:00 +9°C° 0 mm 3 mps 713 mmHg 90%
20:00 +8°C° 0 mm 2 mps 713 mmHg 90%
21:00 +7°C° 0 mm 2 mps 714 mmHg 89%
22:00 +7°C° 0 mm 2 mps 714 mmHg 90%
23:00 +7°C° 0 mm 2 mps 714 mmHg 90%

21 January, Thursday

Time Temperature Precipitation Wind Pressure Humidity
00:00 +7°C° 0 mm 2 mps 715 mmHg 90%
01:00 +7°C° 0 mm 2 mps 715 mmHg 90%
02:00 +7°C° 0 mm 2 mps 715 mmHg 90%
03:00 +7°C° 0 mm 2 mps 715 mmHg 90%
04:00 +7°C° 0 mm 2 mps 715 mmHg 90%
05:00 +7°C° 0 mm 2 mps 715 mmHg 90%
06:00 +7°C° 0 mm 2 mps 715 mmHg 90%
07:00 +8°C° 0 mm 2 mps 716 mmHg 88%
08:00 +10°C° 0 mm 1 mps 716 mmHg 87%
09:00 +10°C° 0 mm 1 mps 716 mmHg 86%
10:00 +12°C° 0.1 mm 2 mps 717 mmHg 81%
11:00 +12°C° 0.1 mm 3 mps 717 mmHg 77%
12:00 +13°C° 0.1 mm 3 mps 717 mmHg 72%
13:00 +13°C° 0 mm 4 mps 716 mmHg 72%
14:00 +13°C° 0 mm 4 mps 716 mmHg 71%
15:00 +14°C° 0 mm 4 mps 716 mmHg 71%
16:00 +13°C° 0 mm 4 mps 716 mmHg 76%
17:00 +12°C° 0 mm 3 mps 715 mmHg 82%
18:00 +11°C° 0 mm 3 mps 715 mmHg 88%
19:00 +11°C° 0.5 mm 3 mps 715 mmHg 90%
20:00 +12°C° 0.5 mm 2 mps 716 mmHg 92%
21:00 +12°C° 0.5 mm 2 mps 716 mmHg 94%
22:00 +12°C° 0.3 mm 2 mps 716 mmHg 94%
23:00 +12°C° 0.3 mm 3 mps 716 mmHg 93%

22 January, Friday

Time Temperature Precipitation Wind Pressure Humidity
00:00 +12°C° 0.3 mm 3 mps 716 mmHg 93%
01:00 +11°C° 0 mm 3 mps 716 mmHg 93%
02:00 +11°C° 0 mm 3 mps 716 mmHg 92%
03:00 +10°C° 0 mm 3 mps 716 mmHg 92%
04:00 +10°C° 0 mm 3 mps 716 mmHg 92%
05:00 +10°C° 0 mm 3 mps 716 mmHg 92%
06:00 +9°C° 0 mm 3 mps 716 mmHg 92%
07:00 +10°C° 0 mm 3 mps 717 mmHg 91%
08:00 +10°C° 0 mm 3 mps 717 mmHg 89%
09:00 +12°C° 0 mm 2 mps 718 mmHg 88%
10:00 +12°C° 0 mm 3 mps 718 mmHg 81%
11:00 +13°C° 0 mm 4 mps 718 mmHg 75%
12:00 +14°C° 0 mm 5 mps 718 mmHg 68%
13:00 +14°C° 0 mm 5 mps 718 mmHg 68%
14:00 +14°C° 0 mm 6 mps 718 mmHg 68%
15:00 +14°C° 0 mm 6 mps 718 mmHg 67%
16:00 +13°C° 0 mm 5 mps 718 mmHg 73%
17:00 +11°C° 0 mm 4 mps 718 mmHg 79%
18:00 +10°C° 0 mm 3 mps 718 mmHg 85%
19:00 +10°C° 0 mm 3 mps 718 mmHg 87%
20:00 +9°C° 0 mm 3 mps 719 mmHg 89%
21:00 +9°C° 0 mm 3 mps 719 mmHg 91%
22:00 +8°C° 0 mm 3 mps 719 mmHg 90%
23:00 +8°C° 0 mm 3 mps 719 mmHg 89%
Show more